• en France
  • Liste des pays
  • À 7 jours
  • Température de l'eau
  • Carte satellitaire
  • Carte météo
  • Widgets météo
  • user-avatar
    Se connecter

    Météo par heure à Canillo

    Ce jour, 15 Novembre, Jeudi

    Heure Température Précipitation Vent Pression Humidité
    00:00 +3°C° 0 mm 2 m/s 620 mmHg 79%
    01:00 +3°C° 0 mm 2 m/s 620 mmHg 80%
    02:00 +3°C° 0 mm 2 m/s 620 mmHg 82%
    03:00 +2°C° 0 mm 2 m/s 619 mmHg 83%
    04:00 +3°C° 0 mm 2 m/s 619 mmHg 84%
    05:00 +3°C° 0 mm 2 m/s 619 mmHg 84%
    06:00 +3°C° 0 mm 2 m/s 620 mmHg 86%
    07:00 +4°C° 0 mm 2 m/s 620 mmHg 82%
    08:00 +5°C° 0 mm 2 m/s 621 mmHg 78%
    09:00 +7°C° 0 mm 2 m/s 621 mmHg 74%
    10:00 +7°C° 0.1 mm 2 m/s 622 mmHg 72%
    11:00 +8°C° 0.1 mm 2 m/s 622 mmHg 70%
    12:00 +9°C° 0 mm 2 m/s 622 mmHg 71%
    13:00 +9°C° 0.4 mm 2 m/s 622 mmHg 73%
    14:00 +8°C° 0.4 mm 2 m/s 622 mmHg 75%
    15:00 +8°C° 0.4 mm 2 m/s 622 mmHg 78%
    16:00 +7°C° 0.1 mm 2 m/s 621 mmHg 83%
    17:00 +7°C° 0.1 mm 1 m/s 621 mmHg 87%
    18:00 +5°C° 0.1 mm 1 m/s 620 mmHg 92%
    19:00 +5°C° 0.1 mm 1 m/s 620 mmHg 92%
    20:00 +5°C° 0.1 mm 1 m/s 620 mmHg 91%
    21:00 +5°C° 0.1 mm 1 m/s 620 mmHg 91%
    22:00 +5°C° 0.1 mm 1 m/s 620 mmHg 90%
    23:00 +5°C° 0.1 mm 1 m/s 620 mmHg 89%

    Demain, 16 Novembre, Vendredi

    Heure Température Précipitation Vent Pression Humidité
    00:00 +5°C° 0.1 mm 1 m/s 620 mmHg 88%
    01:00 +4°C° 0.1 mm 1 m/s 620 mmHg 87%
    02:00 +4°C° 0.1 mm 1 m/s 620 mmHg 87%
    03:00 +4°C° 0.1 mm 1 m/s 620 mmHg 87%
    04:00 +4°C° 0 mm 1 m/s 620 mmHg 87%
    05:00 +4°C° 0 mm 1 m/s 620 mmHg 87%
    06:00 +4°C° 0 mm 1 m/s 620 mmHg 87%
    07:00 +5°C° 0 mm 1 m/s 620 mmHg 83%
    08:00 +6°C° 0 mm 1 m/s 621 mmHg 79%
    09:00 +7°C° 0 mm 1 m/s 622 mmHg 75%
    10:00 +8°C° 0 mm 1 m/s 622 mmHg 72%
    11:00 +8°C° 0 mm 2 m/s 622 mmHg 69%
    12:00 +9°C° 0 mm 2 m/s 623 mmHg 66%
    13:00 +9°C° 0 mm 2 m/s 622 mmHg 68%
    14:00 +9°C° 0 mm 2 m/s 622 mmHg 71%
    15:00 +8°C° 0 mm 2 m/s 621 mmHg 74%
    16:00 +8°C° 0 mm 1 m/s 621 mmHg 80%
    17:00 +6°C° 0 mm 1 m/s 620 mmHg 87%
    18:00 +5°C° 0 mm 1 m/s 620 mmHg 93%
    19:00 +5°C° 0 mm 1 m/s 620 mmHg 93%
    20:00 +5°C° 0 mm 1 m/s 620 mmHg 92%
    21:00 +4°C° 0 mm 1 m/s 620 mmHg 92%
    22:00 +4°C° 0 mm 1 m/s 620 mmHg 92%
    23:00 +4°C° 0 mm 1 m/s 619 mmHg 92%

    Après-demain, 17 Novembre, Samedi

    Heure Température Précipitation Vent Pression Humidité
    00:00 +4°C° 0 mm 1 m/s 619 mmHg 92%
    01:00 +4°C° 0 mm 1 m/s 619 mmHg 92%
    02:00 +4°C° 0 mm 1 m/s 619 mmHg 92%
    03:00 +3°C° 0 mm 1 m/s 619 mmHg 92%
    04:00 +3°C° 0 mm 1 m/s 618 mmHg 91%
    05:00 +3°C° 0 mm 1 m/s 618 mmHg 91%
    06:00 +3°C° 0 mm 1 m/s 618 mmHg 90%
    07:00 +4°C° 0 mm 1 m/s 618 mmHg 86%
    08:00 +5°C° 0 mm 1 m/s 619 mmHg 82%
    09:00 +6°C° 0 mm 1 m/s 619 mmHg 78%
    10:00 +7°C° 0 mm 1 m/s 619 mmHg 76%
    11:00 +7°C° 0 mm 1 m/s 619 mmHg 73%
    12:00 +8°C° 0 mm 1 m/s 619 mmHg 70%
    13:00 +6°C° 0.1 mm 2 m/s 618 mmHg 74%
    14:00 +5°C° 0.1 mm 2 m/s 618 mmHg 78%
    15:00 +5°C° 0.1 mm 2 m/s 617 mmHg 82%
    16:00 +4°C° 0.4 mm 2 m/s 617 mmHg 85%
    17:00 +3°C° 0.4 mm 2 m/s 617 mmHg 88%
    18:00 +2°C° 0.4 mm 2 m/s 617 mmHg 90%
    19:00 +1°C° 0.5 mm 3 m/s 616 mmHg 90%
    20:00 +1°C° 0.5 mm 3 m/s 616 mmHg 90%
    21:00 +1°C° 0.5 mm 3 m/s 616 mmHg 90%
    22:00 0°C° 0.5 mm 3 m/s 616 mmHg 90%
    23:00 0°C° 0.5 mm 3 m/s 616 mmHg 89%

    18 Novembre, Dimanche

    Heure Température Précipitation Vent Pression Humidité
    00:00 0°C° 0.5 mm 3 m/s 616 mmHg 89%
    01:00 0°C° 0.5 mm 3 m/s 615 mmHg 89%
    02:00 0°C° 0.5 mm 3 m/s 615 mmHg 89%
    03:00 +1°C° 0.5 mm 2 m/s 615 mmHg 89%
    04:00 -1°C° 0.4 mm 2 m/s 615 mmHg 89%
    05:00 -1°C° 0.4 mm 2 m/s 615 mmHg 89%
    06:00 -1°C° 0.4 mm 2 m/s 614 mmHg 89%
    07:00 +1°C° 0.7 mm 2 m/s 615 mmHg 87%
    08:00 0°C° 0.7 mm 3 m/s 615 mmHg 86%
    09:00 +1°C° 0.7 mm 3 m/s 615 mmHg 84%
    10:00 +1°C° 1.1 mm 3 m/s 615 mmHg 84%
    11:00 +1°C° 1.1 mm 3 m/s 615 mmHg 84%
    12:00 +1°C° 1.1 mm 3 m/s 615 mmHg 83%
    13:00 +1°C° 0.9 mm 3 m/s 615 mmHg 84%
    14:00 +1°C° 0.9 mm 3 m/s 615 mmHg 85%
    15:00 +1°C° 0.9 mm 3 m/s 614 mmHg 86%
    16:00 0°C° 0.7 mm 3 m/s 614 mmHg 88%
    17:00 0°C° 0.7 mm 3 m/s 614 mmHg 89%
    18:00 0°C° 0.7 mm 3 m/s 614 mmHg 90%
    19:00 -1°C° 0.2 mm 2 m/s 614 mmHg 90%
    20:00 -1°C° 0.2 mm 2 m/s 614 mmHg 90%
    21:00 -1°C° 0.2 mm 2 m/s 613 mmHg 90%
    22:00 -1°C° 0 mm 2 m/s 613 mmHg 90%
    23:00 -2°C° 0 mm 2 m/s 613 mmHg 89%

    19 Novembre, Lundi

    Heure Température Précipitation Vent Pression Humidité
    00:00 -2°C° 0 mm 2 m/s 613 mmHg 89%
    01:00 0°C° 0 mm 1 m/s 612 mmHg 88%
    02:00 0°C° 0 mm 1 m/s 612 mmHg 87%
    03:00 -1°C° 0 mm 1 m/s 611 mmHg 87%
    04:00 -1°C° 0 mm 1 m/s 611 mmHg 86%
    05:00 -1°C° 0 mm 1 m/s 611 mmHg 84%
    06:00 -1°C° 0 mm 1 m/s 611 mmHg 83%
    07:00 0°C° 0 mm 1 m/s 611 mmHg 81%
    08:00 +2°C° 0 mm 1 m/s 612 mmHg 79%
    09:00 +2°C° 0 mm 0 m/s 612 mmHg 78%
    10:00 +4°C° 0 mm 1 m/s 612 mmHg 75%
    11:00 +5°C° 0 mm 1 m/s 612 mmHg 73%
    12:00 +6°C° 0 mm 1 m/s 612 mmHg 71%
    13:00 +5°C° 0 mm 1 m/s 611 mmHg 72%
    14:00 +5°C° 0 mm 1 m/s 611 mmHg 73%
    15:00 +5°C° 0 mm 1 m/s 610 mmHg 75%
    16:00 +3°C° 0 mm 1 m/s 610 mmHg 79%
    17:00 +2°C° 0 mm 1 m/s 609 mmHg 83%
    18:00 0°C° 0 mm 1 m/s 609 mmHg 88%
    19:00 0°C° 0 mm 1 m/s 608 mmHg 88%
    20:00 -1°C° 0 mm 1 m/s 608 mmHg 88%
    21:00 -1°C° 0 mm 1 m/s 608 mmHg 88%
    22:00 -1°C° 0 mm 1 m/s 608 mmHg 87%
    23:00 -2°C° 0 mm 1 m/s 607 mmHg 86%

    20 Novembre, Mardi

    Heure Température Précipitation Vent Pression Humidité
    00:00 -2°C° 0 mm 1 m/s 607 mmHg 85%
    01:00 -2°C° 0 mm 1 m/s 607 mmHg 83%
    02:00 -3°C° 0 mm 1 m/s 607 mmHg 82%
    03:00 -5°C° 0 mm 2 m/s 606 mmHg 81%
    04:00 -5°C° 0 mm 2 m/s 606 mmHg 80%
    05:00 -6°C° 0 mm 2 m/s 606 mmHg 79%
    06:00 -6°C° 0 mm 2 m/s 606 mmHg 78%
    07:00 -5°C° 0 mm 2 m/s 607 mmHg 75%
    08:00 -4°C° 0 mm 2 m/s 607 mmHg 73%
    09:00 -3°C° 0 mm 2 m/s 608 mmHg 70%
    10:00 -2°C° 0 mm 2 m/s 608 mmHg 68%
    11:00 -1°C° 0 mm 2 m/s 609 mmHg 66%
    12:00 +1°C° 0 mm 2 m/s 609 mmHg 64%
    13:00 +1°C° 0 mm 2 m/s 609 mmHg 65%
    14:00 -1°C° 0 mm 2 m/s 609 mmHg 67%
    15:00 -1°C° 0 mm 2 m/s 609 mmHg 68%
    16:00 -3°C° 0 mm 2 m/s 608 mmHg 73%
    17:00 -4°C° 0 mm 2 m/s 608 mmHg 78%
    18:00 -6°C° 0 mm 2 m/s 608 mmHg 83%
    19:00 -4°C° 0 mm 1 m/s 608 mmHg 83%
    20:00 -4°C° 0 mm 1 m/s 608 mmHg 83%
    21:00 -4°C° 0 mm 1 m/s 609 mmHg 82%
    22:00 -4°C° 0 mm 1 m/s 609 mmHg 85%
    23:00 -3°C° 0 mm 1 m/s 609 mmHg 87%
    Voir plus